Regional Weather Roundup
Issued by NWS

Home | Current Version | Previous Version | Graphics & Text | Print | Product List | Glossary On
Versions: 1 2 3 4 5 6 7 8 9 10 11 12 13 14 15 16 17 18 19 20 21 22 23 24 25 26 27 28 29 30 31 32 33 34 35 36 37 38 39 40 41 42 43 44 45 46 47 48 49 50
000
ASUS45 KTFX 292004
RWRMT
MONTANA HOURLY WEATHER ROUNDUP
NATIONAL WEATHER SERVICE GREAT FALLS MT
204 PM MDT SUN MAR 29 2015

NOTE: "FAIR" INDICATES FEW OR NO CLOUDS BELOW 12000 FEET WITH NO
SIGNIFICANT WEATHER AND/OR OBSTRUCTIONS TO VISIBILITY.

* THESE STATIONS ARE NOT UNDER NWS QUALITY CONTROL. THEY DO NOT
   REPORT WEATHER SUCH AS PRECIPITATION OR FOG.

MTZ001>007-043-292100-
WEST OF THE DIVIDE
CITY           SKY/WX    TMP DP  RH WIND       PRES   REMARKS
KALISPELL      CLOUDY    54  32  43 VRB7      30.17F
MISSOULA       CLOUDY    54  30  40 VRB3      30.24F
BUTTE          PTCLDY    52  18  26 CALM      30.19F
MULLAN PASS    CLOUDY    37  30  76 VRB7      30.22F WCI  32
* ESSEX        N/A       47  29  50 W1G6       N/A
* LINCOLN      N/A       50  22  33 SW7G16     N/A
* LOOKOUT PASS N/A       44  31  60 SW2        N/A
* POLSON       N/A       52  31  45 S2G9       N/A
* SEELEY LAKE  N/A       50  25  38 NW7G13     N/A
* THOMP F APT  PTSUNNY   49  17  28 SW9G16     N/A
$$

MTZ008-052>055-292100-
SOUTHWEST MONTANA
CITY           SKY/WX    TMP DP  RH WIND       PRES   REMARKS
BOZEMAN        CLOUDY    52  19  27 CALM      30.20F
DILLON         PTSUNNY   55  12  18 S7G21     30.20F
* W YELLOWSTON PTSUNNY   48  17  29 SW5G11     N/A
* THREE FORKS  CLOUDY    52  21  30 N/A        N/A
* BOULDER HILL N/A       50  19  29 SW12G17    N/A
* HOMESTAKE PS N/A       49  16  27 NW6G14     N/A
* MONIDA PASS  N/A       46  15  29 SE19       N/A
* RAYNOLDS PAS N/A       48  26  42 SE10G16    N/A
* WHITEHALL    N/A       57  21  25 SW15G22    N/A
* WISE RIVER   N/A       52  13  21 W8G14      N/A
$$

MTZ009>010-012-014-046-048-049-054-292100-
EAST SLOPES AND CENTRAL MONTANA
CITY           SKY/WX    TMP DP  RH WIND       PRES   REMARKS
CUT BANK       CLOUDY    50  28  43 SW31G39   30.02F
GREAT FALLS    CLOUDY    55  21  27 SW21G30   30.07F
HELENA         CLOUDY    55  19  24 SE8       30.16F
* DEARBORN     N/A       53  19  26 S17G28     N/A
* EAST GLACIER N/A       46  28  50 W12G26     N/A
* MONARCH      N/A       48  16  28 SW17G27    N/A
* PENDROY      N/A       50  27  41 W14        N/A
* ROGERS PASS  N/A       43  20  40 SE14G30    N/A
* SAINT MARY   N/A       45  29  54 SW13G25    N/A
$$

MTZ011-013-016-021-035-040-045-047-050-051-292100-
NORTH CENTRAL MONTANA
CITY           SKY/WX    TMP DP  RH WIND       PRES   REMARKS
HAVRE          CLOUDY    59  30  33 W25G32    30.00F
LEWISTOWN      CLOUDY    55  25  31 W12       30.10F
* N BAR RANCH  SUNNY     52  25  35 W17G26    30.11F
* MALTA APT    PTSUNNY   61  34  36 W20        N/A
* CHESTER      N/A       56  26  32 W15G27     N/A
* DENTON       N/A       55  24  30 W19G25     N/A
* GEYSER       N/A       54  19  25 W14G22     N/A
* JUDITH GAP   N/A       54  21  27 N1G10      N/A
* LOMA         N/A       57  24  28 SW25G32    N/A
$$

MTZ017>020-022>027-061-062-292100-
NORTHEAST MONTANA
CITY           SKY/WX    TMP DP  RH WIND       PRES   REMARKS
GLASGOW        PTSUNNY   61  32  34 W15G23    30.01F
GLENDIVE       SUNNY     61  30  31 W15G21    30.06F
JORDAN         CLOUDY    61  32  34 W14G24    30.05F
SIDNEY         SUNNY     61  27  27 W14       30.04F
WOLF POINT     PTCLDY    63  36  37 W14G22    30.03F
* BEAVER HILL  N/A       56  26  32 W19G26     N/A
* CIRCLE       N/A       58  35  42 W9G15      N/A
* LINDSAY DVD  N/A       57  31  37 SW12G21    N/A
* NAVAJO       N/A       54  29  38 W13G23     N/A
* SACO         N/A       60  33  36 W15G22     N/A
$$

MTZ028>042-056>058-292100-
SOUTHCENTRAL AND SOUTHEAST MONTANA
CITY           SKY/WX    TMP DP  RH WIND       PRES   REMARKS
BAKER          SUNNY     57  34  42 NW18G29   30.08F
BILLINGS       CLOUDY    57  19  23 W15       30.13F
LIVINGSTON     PTSUNNY   57  16  20 W18G28    30.14F
MILES CITY     PTCLDY    63  30  29 NW18G26   30.08F
* ROUNDUP APT  CLOUDY    57  19  23 W20        N/A
* ALZADA       N/A       59  25  27 W12G17     N/A
* HYSHAM       N/A       58  22  25 W9G20      N/A
* LAME DEER    N/A       53  23  31 W17G23     N/A
* REED POINT   N/A       59  23  25 W20G29     N/A
* ROSCOE HILL  N/A       53  14  21 NE2        N/A
$$

REGIONAL REPORTS...DAKOTAS
CITY           SKY/WX    TMP DP  RH WIND       PRES   REMARKS
WILLISTON      CLOUDY    57  34  42 W17       30.01F
DICKINSON      SUNNY     57  32  39 W18G28    30.02F
CROSBY         SUNNY     55  32  42 W18G23    29.98F
WATFORD CITY   SUNNY     55  32  42 W16G25    30.00F
BISMARCK       SUNNY     57  25  29 NW17G26   30.03F
GRAND FORKS    PTCLDY    54  28  37 NW26G35   29.87R
FARGO          PTSUNNY   57  28  33 NW28G37   29.88R
BUFFALO SD     SUNNY     57  30  36 NW21G30   30.02F
RAPID CITY     SUNNY     63  27  26 N21G29    30.10F
$$

REGIONAL REPORTS...WYOMING/IDAHO/WASHINGTON
CITY           SKY/WX    TMP DP  RH WIND       PRES   REMARKS
GILLETTE       PTCLDY    57  25  29 S8G21     30.12F
SHERIDAN       PTCLDY    59  25  27 NW6       30.12F
CODY           PTSUNNY   55  16  21 CALM      30.16F
YELLOWSTONE LA PTSUNNY   45  10  24 VRB6      30.28F
SALMON         PTCLDY   N/A N/A N/A W3        30.22F
MULLAN PASS    CLOUDY    37  30  76 VRB7      30.22S WCI  32
SAND POINT     CLOUDY    55  36  49 S6        30.21F
SPOKANE        PTSUNNY   55  37  51 SW13G20   30.21F

$$




USA.gov is the U.S. government's official web portal to all federal, state and local government web resources and services.